Location: Boiro
(42.6475°N, 8.8834°W)
Time: 09:18:02
(UTC+01:00)

Vanguard 3 - Pass Details

Date: 07 December 2021
Orbit: 508 x 3260 km, 33.3° (Epoch: 24 January)

Event Time Altitude Azimuth Distance (km) Brightness Sun altitude
Rises 10:22:51 0° 280° (W) 7,033 11.4 12.1°
Reaches altitude 10° 10:28:48 10° 271° (W) 5,731 11.1 12.9°
Maximum altitude 10:41:33 29° 221° (SW) 3,460 10.6 14.4°
Drops below altitude 10° 10:50:16 10° 167° (SSE) 3,834 12.1 15.4°
Sets 10:53:22 0° 155° (SSE) 4,451 12.6 15.7°
